Regional Weather Roundup
Issued by NWS

Home | Current Version | Previous Version | Graphics & Text | Print | Product List | Glossary On
Versions: 1 2 3 4 5 6 7 8 9 10 11 12 13 14 15 16 17 18 19 20 21 22 23 24 25 26 27 28 29 30 31 32 33 34 35 36 37 38 39 40 41 42 43 44 45 46 47 48 49 50
000
ASUS43 KMPX 010301
RWRMN
WEATHER ROUNDUP FOR MINNESOTA
NATIONAL WEATHER SERVICE TWIN CITIES/CHANHASSEN MN
1000 PM CDT FRI JUL 31 2015


NOTE: "FAIR" INDICATES FEW OR NO CLOUDS BELOW 12,000 FEET WITH NO
SIGNIFICANT WEATHER AND/OR OBSTRUCTIONS TO VISIBILITY. N/A MEANS
CURRENT SKY AND/OR WEATHER CONDITIONS ARE NOT AVAILABLE.

MNZ060>063-068>070-010400-
   Twin Cities Metro

CITY           SKY/WX    TMP DP  RH WIND       PRES   REMARKS
TWIN CITIES    CLEAR     75  55  49 W7        29.99R
ST PAUL        CLEAR     75  55  49 W8        29.99R
CRYSTAL        CLEAR     74  56  53 W7        29.98R
BLAINE         CLEAR     73  57  56 W5        29.99R
LAKEVILLE      CLEAR     64  59  82 CALM      30.01R
EDEN PRAIRIE   CLEAR     72  57  59 W5        29.99S
SOUTH ST PAUL  CLEAR     74  54  49 W6        29.99R
LAKE ELMO      FAIR      68  57  68 CALM      30.00R
$$
MNZ001>005-007-008-013>017-022>024-027-028-010400-
   Northwest Minnesota

CITY           SKY/WX    TMP DP  RH WIND       PRES   REMARKS
BEMIDJI        CLEAR     61  51  67 W3        29.98R
HALLOCK        CLEAR     63  55  77 W6        29.95S
ROSEAU         CLEAR     64  55  72 W5        29.95S
WARROAD        CLEAR     64  54  68 W5        29.95R
THIEF RVR FALL CLEAR     64  54  68 CALM      29.97S
CROOKSTON      CLEAR     63  55  77 CALM      29.98R
FOSSTON        CLEAR     59  50  72 CALM      29.99R
DETROIT LAKES  CLEAR     68  55  64 W5        30.01R
MOORHEAD       CLEAR     66  57  72 NW3       29.99R
PARK RAPIDS    CLEAR     62  53  72 W3        29.99R
MAHNOMEN       FAIR      64  55  73 W5        29.98S
$$
MNZ006-009>011-018-025>026-010400-
   North Central Minnesota

CITY           SKY/WX    TMP DP  RH WIND       PRES   REMARKS
BAUDETTE       CLEAR     63  49  60 W7        29.93R
FLAG ISLAND    CLEAR     68  52  56 W8        29.91R
INTL FALLS     CLEAR     63  52  67 W6        29.91R
WASKISH        CLEAR     68  54  60 W8        29.95S
BIG FORK       CLEAR     64  46  52 CALM      29.95S
LONGVILLE      CLEAR     57  55  94 CALM      29.98R
GRAND RAPIDS   CLEAR     66  46  48 NW8       29.96R
CRANE LAKE     MOCLDY    55  55 100 CALM      29.91S
ORR            CLEAR     63  48  59 CALM      29.90R
COOK           CLEAR     61  52  72 CALM      29.93R
WALKER         FAIR      61  54  76 CALM      29.97S
$$
MNZ012-019>021-037-010400-
   Northeast Minnesota

CITY           SKY/WX    TMP DP  RH WIND       PRES   REMARKS
DULUTH         PTCLDY    62  49  62 W8        29.94R
ELY            MOCLDY    59  55  88 CALM      29.92R
HIBBING        CLEAR     65  48  54 W8        29.94R
EVELETH        CLEAR     63  48  59 CALM      29.95R
DULUTH HARBOR  CLEAR     72  55  56 W10       29.92R
TWO HARBORS    PTCLDY    64  55  72 CALM      29.90R
SILVER BAY     CLEAR     59  55  88 CALM      29.90R
GRAND MARAIS     N/A     57  51  80 W3        29.85S
G MARAIS ARPRT PTCLDY    61  52  72 CALM      29.90S
$$
MNZ029>031-032-039>041-046>048-054>057-064-010400-
   West Central Minnesota

CITY           SKY/WX    TMP DP  RH WIND       PRES   REMARKS
FERGUS FALLS   CLEAR     72  61  68 CALM      29.98R
WHEATON        CLEAR     64  61  88 CALM      30.00S
MORRIS         CLEAR     68  61  77 S6        29.99S
ALEXANDRIA     CLEAR     68  59  73 W3        30.02R
ELBOW LAKE     FAIR      70  64  81 CALM      29.99S
WADENA         CLEAR     63  55  77 CALM      29.99S
GLENWOOD       CLEAR     66  61  82 SW5       30.02R
APPLETON       CLEAR     72  61  68 S3        30.00R
BENSON         CLEAR     66  61  82 CALM      30.00S
ORTONVILLE     FAIR      70  61  73 S3        30.00R
MADISON        CLEAR     68  61  77 S3        30.01R
WILLMAR        FAIR      68  63  83 CALM      30.03R
$$
MNZ033>034-036-042>043-049>051-058-059-010400-
   Central Minnesota

CITY           SKY/WX    TMP DP  RH WIND       PRES   REMARKS
ST CLOUD       CLEAR     65  57  75 SW6       29.99R
SAUK CENTRE    FAIR      64  60  87 S5        30.01R
PAYNESVILLE    CLEAR     63  58  85 CALM      30.01S
AITKIN         CLEAR     57  52  82 CALM      29.96R
PINE RIVER     CLEAR     61  54  77 CALM      30.01R
BRAINERD       CLEAR     70  52  52 W3        29.98R
STAPLES        CLEAR     64  55  72 CALM      29.99R
LONG PRAIRIE   FAIR      63  59  88 CALM      30.01R
LITTLE FALLS   CLEAR     63  54  72 CALM      29.99R
LITCHFIELD     CLEAR     70  59  68 CALM      30.02R
BUFFALO        CLEAR     70  58  64 CALM      30.01R
$$
MNZ037-044-045-052-053-010400-
   East Central Minnesota

CITY           SKY/WX    TMP DP  RH WIND       PRES   REMARKS
PRINCETON      CLEAR     64  57  77 CALM      29.99R
MORA           CLEAR     63  52  67 CALM      29.99S
CAMBRIDGE      CLEAR     66  55  68 CALM      29.97R
RUSH CITY      CLEAR     64  53  67 W3        29.98R
MOOSE LAKE     PTCLDY    57  55  94 CALM      29.95R
HINCKLEY       FAIR      59  59 100 CALM      29.97R
CLOQUET        CLEAR     64  46  52 W6        29.95S
MCGREGOR       CLEAR     66  52  59 CALM      29.97R
$$
MNZ071>073-080-081-089-090-097-098-010400-
   Southwest Minnesota

CITY           SKY/WX    TMP DP  RH WIND       PRES   REMARKS
MONTEVIDEO     CLEAR     68  57  68 SW3       30.03R
GRANITE FALLS  CLEAR     66  63  88 SE5       30.03S
CANBY          CLEAR     71  62  73 CALM      30.02S
MARSHALL       CLEAR     70  61  73 S5        30.04S
REDWOOD FALLS  CLEAR     71  61  70 CALM      30.01S
OLIVIA         CLEAR     68  59  73 S3        30.01S
PIPESTONE      CLEAR     66  63  88 SW3       30.07R
WINDOM         CLEAR     66  61  82 CALM      30.05S
WORTHINGTON    CLEAR     68  57  68 SW6       30.07S
JACKSON        CLEAR     70  61  73 SW6       30.07S
TRACY          CLEAR     70  63  78 SW7       30.04S
SLAYTON        CLEAR     68  62  82 CALM      30.06S
$$
MNZ065>067-074>077-082>085-091>093-010400-
   South Central Minnesota

CITY           SKY/WX    TMP DP  RH WIND       PRES   REMARKS
MANKATO        CLEAR     70  55  60 W3        30.03R
NEW ULM        CLEAR     68  61  77 CALM      30.02S
ST JAMES       CLEAR     66  63  88 S5        30.05R
FAIRMONT       CLEAR     66  55  68 CALM      30.05R
GLENCOE        CLEAR     70  61  73 CALM      30.01R
FARIBAULT      CLEAR     64  61  88 CALM      30.03R
OWATONNA       CLEAR     64  57  77 SW5       30.04R
WASECA         CLEAR     63  59  88 CALM      30.05R
ALBERT LEA     CLEAR     66  63  88 SW3       30.05S
$$
MNZ078>079-086>088-094>096-010400-
   Southeast Minnesota

CITY           SKY/WX    TMP DP  RH WIND       PRES   REMARKS
ROCHESTER      CLEAR     63  58  83 W8        30.04R
RED WING       CLEAR     64  57  77 CALM      29.98R
STANTON        CLEAR     68  58  68 SW3       30.00R
DODGE CENTER   PTCLDY    64  57  77 W6        30.04R
WINONA         CLEAR     70  61  73 CALM      30.00R
AUSTIN         CLEAR     72  57  60 W3        30.04S
PRESTON        CLEAR     65  56  73 W8        30.04R
$$
ABBREVIATIONS USED IN REMARKS
   TC - TEMPERATURES IN CELSIUS
  WCI - WIND CHILL INDEX
   HX - HEAT INDEX
  VSB - VISIBILITY
$$


USA.gov is the U.S. government's official web portal to all federal, state and local government web resources and services.